Location: Mount Kobau Star Party
(49.1167°N, 119.7333°W)
Time: 11:52:49
(UTC-07:00)

Envisat - Pass Details

Date: 16 April 2026
Orbit: 761 x 762 km, 98.4° (Epoch: 17 May)

Event Time Altitude Azimuth Distance (km) Brightness Sun altitude
Rises 03:40:56 0° 15° (NNE) 3,234 7.3 -20.8°
Reaches altitude 10° 03:43:16 10° 17° (NNE) 2,303 6.4 -20.6°
Maximum altitude 03:48:21 78° 104° (ESE) 781 3.0 -20.0°
Enters shadow 03:50:47 31° 186° (S) 1,303 3.8 -19.7°
